Find GEMSat

NORAD ID: 39475 Int'l Des: 2013-072 Owner: NROC/CALP Country: US operational
LEORETROGRADE

Current View

Loading 3D Globe...

About GEMSat

Description loading...

Upcoming Passes

Passes for default location (London). Set your location on the main map for personalized predictions.

Altitude History

Loading altitude history...

Two-Line Element Set

1 39475U 13072P 26146.29416869 .00005046 00000-0 33555-3 0 9994
2 39475 120.4307 40.3327 0173108 243.0393 115.2894 14.97818028111292
Epoch: May 26, 2026 • Age: 4 hours

Current Status

Altitude 501.7 km
Velocity 7.66 km/s
Sub-Earth Point -57.10°S, 48.61°E
Launch Date Dec 6, 2013
Age 12.4 years
Type other

Technical Details

Classification Payload
Mass 45.00 kg
Dry Mass 45.00 kg
Total Mass 45.00 kg
Length 0.50 m
Diameter 0.50 m
Span 0.50 m
Shape Box
Manufacturer USNPS
Bus Type NPSCul
Phase Status Attached in Orbit
Owner/State NROC/CALP/US

Most Searched